Location: Helion Bumpstead
(52.0500°N, 0.4000°E)
Time: 11:01:34
(UTC+00:00)

Cosmos 2251 Rocket - Pass Details

Date: 15 November 2025
Orbit: 760 x 788 km, 74.0° (Epoch: 10 December)

Event Time Altitude Azimuth Distance (km) Brightness Sun altitude
Exits shadow 04:36:55 51° 210° (SSW) 984 3.8 -24.6°
Drops below altitude 10° 04:41:14 10° 173° (S) 2,346 6.1 -24.0°
Sets 04:43:38 0° 170° (S) 3,269 6.9 -23.6°
